Skip Navigation Linkswww.weather.gov 
NOAA logo - Click to go to the NOAA homepage National Weather Service   NWS logo - Click to go to the NWS homepage    
Western Region Headquarters
navigation bar decoration      
Regional Divisions
 
 
 
 
 
USA.gov is the U.S. government's official web portal to all federal, state and local government web resources and services.
spacer
Printer Friendly  |   Go Back  |  Version: Current   1   2   3   4   5   6   7   8   9   10   |  Font:  A A A  |  

HOURLY WEATHER ROUNDUP
 
 ASUS45 KREV 210110
RWRNV
NEVADA REGIONAL WEATHER ROUNDUP
NATIONAL WEATHER SERVICE RENO NV
600 PM PDT MON APR 20 2015

NOTE: "FAIR" INDICATES FEW OR NO CLOUDS BELOW 12,000 FEET WITH NO
SIGNIFICANT WEATHER AND/OR OBSTRUCTIONS TO VISIBILITY.

NVZ001-003-004-210200-
WESTERN NEVADA

CITY SKY/WX TMP DP RH WIND PRES REMARKS
RENO PTSUNNY 74 29 19 W28G33 29.83S
CARSON CITY FAIR 72 27 18 W15G21 29.86S
MINDEN FAIR 72 27 18 W22G29 29.88
SLIDE MTN N/A 39 28 65 W23 N/A
PYRAMID LAKE N/A 73 N/A N/A N5 N/A
FALLON MOSUNNY 76 3 6 E6 29.81F
LOVELOCK SUNNY 77 2 5 W12 29.81F
HAWTHORNE SUNNY 77 3 6 NW13 29.81F
$$

NVZ002-CAZ072-073-210200-
NORTHERN AND CENTRAL SIERRA

CITY SKY/WX TMP DP RH WIND PRES REMARKS
S. LAKE TAHOE MOSUNNY 63 25 23 S7 29.97S
TRUCKEE PTSUNNY 63 39 42 W8G17 29.98R
SQUAW VLY 8000 N/A 48 34 57 W5 N/A
SUSANVILLE MOSUNNY 75 23 14 SW5 29.83S
BLUE CANYON CLOUDY 61 38 42 S5 29.97F
MAMMOTH LAKES FAIR 59 25 27 SW20 29.98F
BRIDGEPORT FAIR 53 28 38 S9 29.99S
$$

NVZ030-031-036-210200-
NORTHERN NEVADA

CITY SKY/WX TMP DP RH WIND PRES REMARKS
ELKO SUNNY 69 17 13 W7 29.87F
WINNEMUCCA SUNNY 73 11 9 NW7 29.84F
WENDOVER SUNNY 70 19 14 E7 29.86S
$$

NVZ035-037-210200-
CENTRAL NEVADA

CITY SKY/WX TMP DP RH WIND PRES REMARKS
ELY SUNNY 66 3 8 NW12 29.92S
EUREKA N/A 67 8 10 NE10 29.90F
$$

NVZ013-014-210200-
SOUTH CENTRAL NEVADA

CITY SKY/WX TMP DP RH WIND PRES REMARKS
TONOPAH SUNNY 73 2 6 NW7 29.86F
$$

NVZ017-020-022-210200-
SOUTHERN NEVADA

CITY SKY/WX TMP DP RH WIND PRES REMARKS
LAS VEGAS MOSUNNY 86 14 7 S8 29.66F
N. LAS VEGAS MOSUNNY 87 10 5 S9 29.69F
NELLIS AFB NOT AVBL
HENDERSON MOSUNNY 83 19 9 S6 29.73F
MERCURY SUNNY 82 13 7 W9 29.75F
$$


Webmaster
US Dept of Commerce
National Oceanic and Atmospheric Administration
National Weather Service
Western Region Headquarters
125 South State Street
Salt Lake City, UT 84138-1102

Disclaimer
Information Quality
Credits
Glossary
Organization
Privacy Policy
Freedom of Information Act
About Us
Career Opportunities